Weather History for Oconto, WI

Change the Weather History Date:

Monday, February 3, 2014

  Actual Average Record
Temperature  
Mean Temperature 0 °F -  
Max Temperature 18 °F 26 °F 18 °F (2014)
Min Temperature -17 °F 4 °F -17 °F (2014)
Degree Days  
Heating Degree Days 64    
Moisture  
Dew Point -4 °F    
Average Humidity 68    
Maximum Humidity 86    
Minimum Humidity 51    
Precipitation  
Precipitation 0.03 in - - ()
Sea Level Pressure  
Sea Level Pressure 30.27 in    
Wind  
Wind Speed 4 mph (SW)    
Max Wind Speed 10 mph    
Max Gust Speed 17 mph    
Visibility 10 miles    
Events      
Averages and records for this station are not official NWS values.
T = Trace of Precipitation, MM = Missing Value Source: NWS Daily Summary

Daily Weather History Graph

Daily Weather History Graph

Search for Another Location

Airport:

Trip Planner

Search our weather history database for the weather conditions in past years. The results will help you decide how hot, cold, wet, or windy it might be!

Date:

Astronomy

Feb. 03, 2014 Rise Set
Actual Time 7:08 AM CST 5:02 PM CST
Civil Twilight 6:37 AM CST 5:33 PM CST
Nautical Twilight 6:02 AM CST 6:08 PM CST
Astronomical Twilight 5:28 AM CST 6:43 PM CST
Moon 8:57 AM CST (2/3) 10:07 PM CST (2/3)
Length of Visible Light 10h 56m
Length of Day
9h 54m
Waxing Crescent, 20% of the Moon is Illuminated
Feb 3
Waxing Crescent
Feb 6
First Quarter
Feb 14
Full
Feb 22
Last Quarter
Mar 1
New

Hourly Weather History & Observations

Time (CST) Temp. Windchill Dew Point Humidity Pressure Visibility Wind Dir Wind Speed Gust Speed Precip Events Conditions
12:15 AM -1.7 °F -13.5 °F -8.7 °F 72% 30.28 in 10.0 mi West 5.8 mph - N/A   Clear
12:35 AM -4.0 °F -14.6 °F -10.5 °F 74% 30.28 in 10.0 mi West 4.6 mph - N/A   Clear
12:55 AM -4.2 °F -18.0 °F -10.5 °F 74% 30.28 in 10.0 mi West 6.9 mph - N/A   Clear
1:15 AM -4.2 °F -16.5 °F -10.5 °F 74% 30.28 in 10.0 mi West 5.8 mph - N/A   Clear
1:35 AM -4.2 °F -16.5 °F -10.5 °F 74% 30.28 in 10.0 mi West 5.8 mph - N/A   Clear
1:55 AM -4.0 °F -12.4 °F -9.9 °F 76% 30.29 in 10.0 mi WSW 3.5 mph - N/A   Clear
2:15 AM -4.9 °F -15.6 °F -10.3 °F 78% 30.28 in 10.0 mi West 4.6 mph - N/A   Clear
2:35 AM -4.7 °F -15.4 °F -9.6 °F 80% 30.28 in 10.0 mi West 4.6 mph - N/A   Clear
2:55 AM -5.4 °F -14.1 °F -10.3 °F 80% 30.28 in 10.0 mi West 3.5 mph - N/A   Clear
3:15 AM -6.9 °F -15.7 °F -10.8 °F 83% 30.28 in 10.0 mi West 3.5 mph - N/A   Clear
3:35 AM -6.9 °F -15.7 °F -11.2 °F 81% 30.28 in 10.0 mi West 3.5 mph - N/A   Clear
3:55 AM -6.5 °F -19.3 °F -10.7 °F 82% 30.28 in 10.0 mi West 5.8 mph - N/A   Clear
4:15 AM -8.3 °F -19.6 °F -12.5 °F 82% 30.28 in 10.0 mi West 4.6 mph - N/A   Clear
4:35 AM -13.4 °F -23.1 °F -16.8 °F 85% 30.28 in 10.0 mi West 3.5 mph - N/A   Clear
4:55 AM -15.3 °F - -19.1 °F 83% 30.28 in 10.0 mi Calm Calm - N/A   Clear
5:15 AM -17.3 °F -30.1 °F -21.5 °F 81% 30.28 in 10.0 mi West 4.6 mph - N/A   Clear
5:35 AM -15.3 °F - -18.9 °F 84% 30.28 in 10.0 mi Calm Calm - N/A   Clear
5:55 AM -14.4 °F - -18.0 °F 84% 30.28 in 10.0 mi Calm Calm - N/A   Clear
6:15 AM -13.5 °F - -17.0 °F 85% 30.28 in 10.0 mi Calm Calm - N/A   Clear
6:35 AM -15.0 °F - -18.8 °F 83% 30.28 in 10.0 mi Calm Calm - N/A   Clear
6:55 AM -13.4 °F - -17.5 °F 82% 30.28 in 10.0 mi Calm Calm - N/A   Clear
7:15 AM -16.2 °F - -20.7 °F 80% 30.28 in 10.0 mi Calm Calm - N/A   Clear
7:35 AM -17.0 °F - -21.3 °F 81% 30.29 in 10.0 mi Calm Calm - N/A   Clear
7:55 AM -13.7 °F - -18.0 °F 81% 30.30 in 10.0 mi Calm Calm - N/A   Clear
8:15 AM -14.3 °F - -18.8 °F 80% 30.30 in 10.0 mi Calm Calm - N/A   Clear
8:35 AM -7.8 °F - -12.3 °F 81% 30.31 in 10.0 mi Calm Calm - N/A   Clear
8:55 AM -2.7 °F - -8.1 °F 78% 30.30 in 10.0 mi Calm Calm - N/A   Clear
9:15 AM -0.4 °F -8.3 °F -7.4 °F 72% 30.30 in 10.0 mi SE 3.5 mph - N/A   Clear
9:35 AM 1.0 °F -6.7 °F -7.6 °F 67% 30.31 in 10.0 mi ESE 3.5 mph - N/A   Clear
9:55 AM 3.0 °F - -6.7 °F 64% 30.31 in 10.0 mi Calm Calm - N/A   Clear
10:15 AM 4.5 °F -6.3 °F -6.0 °F 62% 30.30 in 10.0 mi SE 5.8 mph - N/A   Clear
10:35 AM 7.3 °F -1.3 °F -4.7 °F 58% 30.30 in 10.0 mi ESE 4.6 mph - N/A   Clear
10:55 AM 8.4 °F - -3.1 °F 60% 30.29 in 10.0 mi Calm Calm - N/A   Clear
11:15 AM 13.5 °F 2.2 °F 0.9 °F 57% 30.29 in 10.0 mi WSW 8.1 mph - N/A   Clear
11:35 AM 14.0 °F 1.2 °F 1.4 °F 57% 30.28 in 10.0 mi WSW 10.4 mph 16.1 mph N/A   Clear
11:55 AM 14.5 °F 4.6 °F 1.2 °F 56% 30.27 in 10.0 mi WSW 6.9 mph - N/A   Clear
12:15 PM 15.4 °F 4.6 °F 1.8 °F 55% 30.27 in 10.0 mi SSW 8.1 mph - N/A   Clear
12:35 PM 15.8 °F 3.4 °F 1.6 °F 54% 30.26 in 10.0 mi SSW 10.4 mph - N/A   Clear
12:55 PM 16.3 °F 5.7 °F 2.5 °F 55% 30.26 in 10.0 mi SW 8.1 mph - N/A   Clear
1:10 PM 16.7 °F 6.2 °F 2.3 °F 53% 30.26 in 10.0 mi SW 8.1 mph - N/A   Clear
1:35 PM 17.6 °F 6.4 °F 2.5 °F 52% 30.25 in 10.0 mi WSW 9.2 mph - N/A   Clear
1:55 PM 17.6 °F 5.7 °F 2.7 °F 52% 30.25 in 10.0 mi WSW 10.4 mph 17.3 mph N/A   Clear
2:15 PM 18.5 °F 13.3 °F 3.0 °F 51% 30.24 in 10.0 mi South 3.5 mph - 0.03 in   Clear
2:35 PM 17.6 °F 10.7 °F 3.4 °F 54% 30.24 in 10.0 mi South 4.6 mph - 0.03 in   Clear
2:55 PM 17.1 °F 7.6 °F 2.8 °F 54% 30.23 in 10.0 mi SSE 6.9 mph - 0.03 in   Clear
3:15 PM 16.7 °F 5.3 °F 2.8 °F 55% 30.23 in 10.0 mi South 9.2 mph - N/A   Clear
3:35 PM 17.2 °F 6.0 °F 3.4 °F 55% 30.24 in 10.0 mi South 9.2 mph - N/A   Clear
3:55 PM 17.6 °F 7.3 °F 3.7 °F 55% 30.23 in 10.0 mi South 8.1 mph - N/A   Clear
4:15 PM 16.7 °F 7.2 °F 3.7 °F 57% 30.24 in 10.0 mi South 6.9 mph - N/A   Clear
4:35 PM 16.7 °F 6.2 °F 3.2 °F 55% 30.25 in 10.0 mi SSW 8.1 mph - N/A   Clear
4:55 PM 16.2 °F 6.5 °F 3.2 °F 57% 30.25 in 10.0 mi SW 6.9 mph - N/A   Clear
5:15 PM 15.6 °F 10.0 °F 3.2 °F 58% 30.24 in 10.0 mi South 3.5 mph - N/A   Clear
5:35 PM 15.3 °F 7.9 °F 3.2 °F 59% 30.24 in 10.0 mi South 4.6 mph - N/A   Clear
5:55 PM 14.9 °F 5.0 °F 3.4 °F 60% 30.25 in 10.0 mi SSW 6.9 mph - N/A   Clear
6:15 PM 14.9 °F 6.1 °F 3.7 °F 61% 30.26 in 10.0 mi SW 5.8 mph - N/A   Clear
6:35 PM 14.9 °F 6.1 °F 3.7 °F 61% 30.26 in 10.0 mi SW 5.8 mph - N/A   Clear
6:55 PM 14.9 °F 7.5 °F 3.7 °F 61% 30.26 in 10.0 mi SSW 4.6 mph - N/A   Clear
7:15 PM 14.7 °F 7.3 °F 3.7 °F 62% 30.26 in 10.0 mi SSW 4.6 mph - N/A   Clear
7:35 PM 14.4 °F 6.9 °F 3.7 °F 63% 30.26 in 10.0 mi SW 4.6 mph - N/A   Clear
7:55 PM 14.0 °F 8.2 °F 3.7 °F 64% 30.26 in 10.0 mi SW 3.5 mph - N/A   Clear
8:15 PM 14.0 °F 8.2 °F 3.9 °F 64% 30.26 in 10.0 mi SW 3.5 mph - N/A   Clear
8:35 PM 14.0 °F 6.5 °F 3.9 °F 64% 30.26 in 10.0 mi SW 4.6 mph - N/A   Clear
8:55 PM 14.0 °F 8.2 °F 4.1 °F 65% 30.26 in 10.0 mi SW 3.5 mph - N/A   Clear
9:15 PM 13.8 °F 4.9 °F 4.1 °F 65% 30.26 in 10.0 mi SW 5.8 mph - N/A   Clear
9:35 PM 13.6 °F 6.0 °F 4.1 °F 66% 30.27 in 10.0 mi SW 4.6 mph - N/A   Clear
9:55 PM 13.1 °F 4.0 °F 3.9 °F 67% 30.27 in 10.0 mi SW 5.8 mph - N/A   Clear
10:15 PM 11.8 °F 5.7 °F 3.0 °F 68% 30.28 in 10.0 mi WSW 3.5 mph - N/A   Clear
10:35 PM 10.9 °F 4.7 °F 3.4 °F 72% 30.29 in 10.0 mi WSW 3.5 mph - N/A   Clear
10:55 PM 6.4 °F - 0.7 °F 77% 30.29 in 10.0 mi Calm Calm - N/A   Clear
11:15 PM 5.7 °F - 0.5 °F 79% 30.29 in 10.0 mi Calm Calm - N/A   Clear
11:35 PM 2.3 °F - -1.7 °F 84% 30.29 in 10.0 mi Calm Calm - N/A   Clear
11:55 PM 2.3 °F - -1.1 °F 86% 30.29 in 10.0 mi Calm Calm - N/A   Clear